Time,TemperatureF,DewpointF,PressureIn,WindDirection,WindDirectionDegrees,WindSpeedMPH,WindSpeedGustMPH,Humidity,HourlyPrecipIn,Conditions,Clouds,dailyrainin,SoftwareType,DateUTC
2013-07-10 00:01:00,73.8,69.8,29.83,SSE,158,0.0,1.1,87,0.00,,,0.00,WUHU216HW,2013-07-10 05:01:00,
2013-07-10 00:06:00,73.4,69.4,29.83,SSE,158,0.0,1.1,87,0.00,,,0.00,WUHU216HW,2013-07-10 05:06:00,
2013-07-10 00:11:00,73.3,69.2,29.82,SSW,203,0.9,0.9,87,0.00,,,0.00,WUHU216HW,2013-07-10 05:11:00,
2013-07-10 00:16:00,73.1,68.7,29.82,SSE,158,0.0,1.1,86,0.00,,,0.00,WUHU216HW,2013-07-10 05:16:00,
2013-07-10 00:21:00,72.9,68.9,29.82,SE,135,0.0,1.1,87,0.00,,,0.00,WUHU216HW,2013-07-10 05:21:00,
2013-07-10 00:26:00,72.7,68.7,29.82,NE,45,0.0,0.4,87,0.00,,,0.00,WUHU216HW,2013-07-10 05:26:00,
2013-07-10 00:31:00,72.7,68.7,29.81,ENE,68,0.0,0.4,87,0.00,,,0.00,WUHU216HW,2013-07-10 05:31:00,
2013-07-10 00:36:00,72.7,68.7,29.82,SE,135,0.2,0.7,87,0.00,,,0.00,WUHU216HW,2013-07-10 05:36:00,
2013-07-10 00:41:00,72.7,68.7,29.81,SE,135,0.9,2.0,87,0.00,,,0.00,WUHU216HW,2013-07-10 05:41:00,
2013-07-10 00:46:00,72.4,68.3,29.81,SSE,158,0.0,2.0,87,0.00,,,0.00,WUHU216HW,2013-07-10 05:46:00,
2013-07-10 00:51:00,72.4,68.3,29.81,SE,135,0.0,0.9,87,0.00,,,0.00,WUHU216HW,2013-07-10 05:51:00,
2013-07-10 00:56:00,72.2,68.1,29.81,SE,135,1.1,1.1,87,0.00,,,0.00,WUHU216HW,2013-07-10 05:56:00,
2013-07-10 01:01:00,72.0,68.0,29.81,SE,135,0.0,1.1,87,0.00,,,0.00,WUHU216HW,2013-07-10 06:01:00,
2013-07-10 01:06:00,71.8,68.0,29.81,ESE,113,0.2,1.3,88,0.00,,,0.00,WUHU216HW,2013-07-10 06:06:00,
2013-07-10 01:11:00,71.6,67.9,29.81,SE,135,0.0,1.3,88,0.00,,,0.00,WUHU216HW,2013-07-10 06:11:00,
2013-07-10 01:16:00,71.6,67.9,29.81,SSE,158,0.9,1.6,88,0.00,,,0.00,WUHU216HW,2013-07-10 06:16:00,
2013-07-10 01:21:00,71.5,67.7,29.81,SE,135,0.4,1.6,88,0.00,,,0.00,WUHU216HW,2013-07-10 06:21:00,
2013-07-10 01:26:00,71.5,67.7,29.81,SE,135,0.4,1.6,88,0.00,,,0.00,WUHU216HW,2013-07-10 06:26:00,
2013-07-10 01:31:00,71.3,67.5,29.81,SE,135,0.7,1.6,88,0.00,,,0.00,WUHU216HW,2013-07-10 06:31:00,
2013-07-10 01:36:00,71.1,67.3,29.81,ESE,113,0.0,1.1,88,0.00,,,0.00,WUHU216HW,2013-07-10 06:36:00,
2013-07-10 01:41:00,71.1,67.3,29.81,SE,135,0.0,1.1,88,0.00,,,0.00,WUHU216HW,2013-07-10 06:41:00,
2013-07-10 01:46:00,71.3,67.5,29.81,SSE,158,0.0,1.1,88,0.00,,,0.00,WUHU216HW,2013-07-10 06:46:00,
2013-07-10 01:51:00,71.3,67.9,29.81,East,90,0.9,1.1,89,0.00,,,0.00,WUHU216HW,2013-07-10 06:51:00,
2013-07-10 01:56:00,71.5,67.7,29.81,South,180,0.0,1.6,88,0.00,,,0.00,WUHU216HW,2013-07-10 06:56:00,
2013-07-10 02:01:00,71.5,67.7,29.81,SE,135,0.4,2.7,88,0.00,,,0.00,WUHU216HW,2013-07-10 07:01:00,
2013-07-10 02:06:00,71.5,68.0,29.81,WNW,293,1.3,2.7,89,0.00,,,0.00,WUHU216HW,2013-07-10 07:06:00,
2013-07-10 02:11:00,71.6,67.9,29.81,SW,225,1.6,1.6,88,0.00,,,0.00,WUHU216HW,2013-07-10 07:11:00,
2013-07-10 02:16:00,71.8,68.0,29.81,WNW,293,0.4,1.6,88,0.00,,,0.00,WUHU216HW,2013-07-10 07:16:00,
2013-07-10 02:21:00,71.8,68.0,29.81,East,90,0.4,1.6,88,0.00,,,0.00,WUHU216HW,2013-07-10 07:21:00,
2013-07-10 02:26:00,72.0,68.2,29.81,West,270,1.3,3.1,88,0.00,,,0.00,WUHU216HW,2013-07-10 07:26:00,
2013-07-10 02:31:00,72.2,68.4,29.81,North,0,0.4,3.1,88,0.00,,,0.00,WUHU216HW,2013-07-10 07:31:00,
2013-07-10 02:36:00,72.4,68.3,29.81,SW,225,1.6,3.8,87,0.00,,,0.00,WUHU216HW,2013-07-10 07:36:00,
2013-07-10 02:41:00,72.5,68.1,29.81,SE,135,0.9,3.8,86,0.00,,,0.00,WUHU216HW,2013-07-10 07:41:00,
2013-07-10 02:46:00,72.7,68.3,29.81,North,0,2.0,4.5,86,0.00,,,0.00,WUHU216HW,2013-07-10 07:46:00,
2013-07-10 02:51:00,72.7,68.3,29.81,NW,315,1.3,4.5,86,0.00,,,0.00,WUHU216HW,2013-07-10 07:51:00,
2013-07-10 02:56:00,72.7,68.0,29.81,SE,135,0.0,2.7,85,0.00,,,0.00,WUHU216HW,2013-07-10 07:56:00,
2013-07-10 03:01:00,72.7,68.0,29.81,SE,135,0.7,2.7,85,0.00,,,0.00,WUHU216HW,2013-07-10 08:01:00,
2013-07-10 03:06:00,72.5,67.8,29.81,SE,135,1.8,4.0,85,0.00,,,0.00,WUHU216HW,2013-07-10 08:06:00,
2013-07-10 03:11:00,72.5,67.8,29.81,NNW,338,0.9,4.0,85,0.00,,,0.00,WUHU216HW,2013-07-10 08:11:00,
2013-07-10 03:16:00,72.5,67.8,29.81,SE,135,0.9,2.5,85,0.00,,,0.00,WUHU216HW,2013-07-10 08:16:00,
2013-07-10 03:21:00,72.4,67.6,29.81,WNW,293,1.8,2.9,85,0.00,,,0.00,WUHU216HW,2013-07-10 08:21:00,
2013-07-10 03:26:00,72.4,67.6,29.81,NNE,23,1.3,2.9,85,0.00,,,0.00,WUHU216HW,2013-07-10 08:26:00,
2013-07-10 03:31:00,72.4,67.6,29.81,WSW,248,1.1,2.0,85,0.00,,,0.00,WUHU216HW,2013-07-10 08:31:00,
2013-07-10 03:36:00,72.2,67.4,29.82,SW,225,1.8,1.8,85,0.00,,,0.00,WUHU216HW,2013-07-10 08:36:00,
2013-07-10 03:41:00,72.0,67.2,29.82,NE,45,0.4,2.5,85,0.00,,,0.00,WUHU216HW,2013-07-10 08:41:00,
2013-07-10 03:46:00,71.8,67.1,29.82,SW,225,0.9,2.5,85,0.00,,,0.00,WUHU216HW,2013-07-10 08:46:00,
2013-07-10 03:51:00,71.6,66.9,29.82,NNE,23,0.0,1.3,85,0.00,,,0.00,WUHU216HW,2013-07-10 08:51:00,
2013-07-10 03:56:00,71.6,66.9,29.82,SSW,203,0.4,1.8,85,0.00,,,0.00,WUHU216HW,2013-07-10 08:56:00,
2013-07-10 04:01:00,71.6,67.2,29.82,ESE,113,1.1,2.7,86,0.00,,,0.00,WUHU216HW,2013-07-10 09:01:00,
2013-07-10 04:06:00,71.8,67.4,29.82,WNW,293,0.7,4.3,86,0.00,,,0.00,WUHU216HW,2013-07-10 09:06:00,
2013-07-10 04:11:00,71.8,67.1,29.82,NE,45,2.5,4.3,85,0.00,,,0.00,WUHU216HW,2013-07-10 09:11:00,
2013-07-10 04:16:00,72.0,67.2,29.82,West,270,0.9,3.4,85,0.00,,,0.00,WUHU216HW,2013-07-10 09:16:00,
2013-07-10 04:21:00,72.0,66.9,29.83,WNW,293,2.0,2.9,84,0.00,,,0.00,WUHU216HW,2013-07-10 09:21:00,
2013-07-10 04:26:00,71.8,66.7,29.83,WNW,293,2.2,3.4,84,0.00,,,0.00,WUHU216HW,2013-07-10 09:26:00,
2013-07-10 04:31:00,71.8,66.7,29.83,West,270,0.2,3.8,84,0.00,,,0.00,WUHU216HW,2013-07-10 09:31:00,
2013-07-10 04:36:00,71.8,66.7,29.83,West,270,1.1,4.0,84,0.00,,,0.00,WUHU216HW,2013-07-10 09:36:00,
2013-07-10 04:41:00,71.8,66.7,29.83,NNW,338,0.9,4.0,84,0.00,,,0.00,WUHU216HW,2013-07-10 09:41:00,
2013-07-10 04:46:00,71.6,66.5,29.84,West,270,1.8,3.6,84,0.00,,,0.00,WUHU216HW,2013-07-10 09:46:00,
2013-07-10 04:51:00,71.6,66.5,29.84,West,270,1.8,3.6,84,0.00,,,0.00,WUHU216HW,2013-07-10 09:51:00,
2013-07-10 04:56:00,71.6,66.5,29.84,NW,315,3.1,4.9,84,0.00,,,0.00,WUHU216HW,2013-07-10 09:56:00,
2013-07-10 05:01:00,71.6,66.5,29.84,SW,225,1.8,4.9,84,0.00,,,0.00,WUHU216HW,2013-07-10 10:01:00,
2013-07-10 05:06:00,71.6,66.5,29.84,WSW,248,1.8,4.5,84,0.00,,,0.00,WUHU216HW,2013-07-10 10:06:00,
2013-07-10 05:11:00,71.6,66.9,29.84,NW,315,4.7,4.7,85,0.00,,,0.00,WUHU216HW,2013-07-10 10:11:00,
2013-07-10 05:16:00,71.6,66.5,29.85,WSW,248,2.2,4.7,84,0.00,,,0.00,WUHU216HW,2013-07-10 10:16:00,
2013-07-10 05:21:00,71.8,66.7,29.85,West,270,3.8,4.7,84,0.00,,,0.00,WUHU216HW,2013-07-10 10:21:00,
2013-07-10 05:26:00,71.8,66.7,29.85,SSW,203,0.4,4.7,84,0.00,,,0.00,WUHU216HW,2013-07-10 10:26:00,
2013-07-10 05:31:00,71.8,66.7,29.85,WNW,293,2.9,5.4,84,0.00,,,0.00,WUHU216HW,2013-07-10 10:31:00,
2013-07-10 05:36:00,71.8,66.7,29.85,NW,315,1.8,5.4,84,0.00,,,0.00,WUHU216HW,2013-07-10 10:36:00,
2013-07-10 05:41:00,72.0,66.9,29.85,WSW,248,3.4,5.1,84,0.00,,,0.00,WUHU216HW,2013-07-10 10:41:00,
2013-07-10 05:46:00,72.0,66.9,29.85,NW,315,3.6,5.1,84,0.00,,,0.00,WUHU216HW,2013-07-10 10:46:00,
2013-07-10 05:51:00,72.0,66.9,29.85,WNW,293,1.1,4.5,84,0.00,,,0.00,WUHU216HW,2013-07-10 10:51:00,
2013-07-10 05:56:00,71.8,66.7,29.85,WNW,293,5.1,5.4,84,0.00,,,0.00,WUHU216HW,2013-07-10 10:56:00,
2013-07-10 06:01:00,71.6,66.5,29.85,NW,315,3.4,5.4,84,0.00,,,0.00,WUHU216HW,2013-07-10 11:01:00,
2013-07-10 06:06:00,71.6,66.5,29.85,WNW,293,2.2,5.8,84,0.00,,,0.00,WUHU216HW,2013-07-10 11:06:00,
2013-07-10 06:11:00,71.6,66.5,29.85,NNW,338,2.0,5.8,84,0.00,,,0.00,WUHU216HW,2013-07-10 11:11:00,
2013-07-10 06:16:00,71.6,66.5,29.86,NW,315,3.6,5.6,84,0.00,,,0.00,WUHU216HW,2013-07-10 11:16:00,
2013-07-10 06:21:00,71.6,66.5,29.85,WNW,293,3.8,5.6,84,0.00,,,0.00,WUHU216HW,2013-07-10 11:21:00,
2013-07-10 06:26:00,71.6,66.5,29.86,NNW,338,2.2,4.7,84,0.00,,,0.00,WUHU216HW,2013-07-10 11:26:00,
2013-07-10 06:31:00,71.5,66.3,29.86,NW,315,2.5,5.6,84,0.00,,,0.00,WUHU216HW,2013-07-10 11:31:00,
2013-07-10 06:36:00,71.3,66.2,29.86,WNW,293,6.5,6.5,84,0.00,,,0.00,WUHU216HW,2013-07-10 11:36:00,
2013-07-10 06:41:00,71.3,66.2,29.86,NW,315,4.7,6.5,84,0.00,,,0.00,WUHU216HW,2013-07-10 11:41:00,
2013-07-10 06:46:00,71.5,66.3,29.86,NNW,338,4.0,6.5,84,0.00,,,0.00,WUHU216HW,2013-07-10 11:46:00,
2013-07-10 06:51:00,71.6,66.2,29.86,NNW,338,2.5,6.0,83,0.00,,,0.00,WUHU216HW,2013-07-10 11:51:00,
2013-07-10 06:56:00,71.6,66.2,29.86,NNW,338,1.3,6.5,83,0.00,,,0.00,WUHU216HW,2013-07-10 11:56:00,
2013-07-10 07:01:00,71.5,65.7,29.86,WNW,293,5.4,7.6,82,0.00,,,0.00,WUHU216HW,2013-07-10 12:01:00,
2013-07-10 07:06:00,71.1,65.0,29.86,WNW,293,4.0,8.5,81,0.00,,,0.00,WUHU216HW,2013-07-10 12:06:00,
2013-07-10 07:11:00,71.1,64.6,29.86,WNW,293,3.1,9.8,80,0.00,,,0.00,WUHU216HW,2013-07-10 12:11:00,
2013-07-10 07:16:00,70.9,63.7,29.87,North,0,4.0,9.8,78,0.00,,,0.00,WUHU216HW,2013-07-10 12:16:00,
2013-07-10 07:21:00,70.9,64.1,29.87,North,0,3.4,9.2,79,0.00,,,0.00,WUHU216HW,2013-07-10 12:21:00,
2013-07-10 07:26:00,70.9,64.1,29.87,NW,315,5.6,9.4,79,0.00,,,0.00,WUHU216HW,2013-07-10 12:26:00,
2013-07-10 07:31:00,70.9,63.7,29.87,NW,315,4.7,9.4,78,0.00,,,0.00,WUHU216HW,2013-07-10 12:31:00,
2013-07-10 07:36:00,70.9,63.7,29.87,NW,315,1.1,6.0,78,0.00,,,0.00,WUHU216HW,2013-07-10 12:36:00,
2013-07-10 07:41:00,71.1,63.9,29.87,NNE,23,3.4,5.4,78,0.00,,,0.00,WUHU216HW,2013-07-10 12:41:00,
2013-07-10 07:46:00,71.3,64.1,29.87,North,0,2.9,4.5,78,0.00,,,0.00,WUHU216HW,2013-07-10 12:46:00,
2013-07-10 07:51:00,71.3,63.6,29.87,NE,45,4.7,4.7,77,0.00,,,0.00,WUHU216HW,2013-07-10 12:51:00,
2013-07-10 07:56:00,71.1,63.5,29.87,NNE,23,0.9,5.1,77,0.00,,,0.00,WUHU216HW,2013-07-10 12:56:00,
2013-07-10 08:01:00,71.3,64.1,29.87,West,270,1.1,5.1,78,0.00,,,0.00,WUHU216HW,2013-07-10 13:01:00,
2013-07-10 08:06:00,71.5,63.8,29.87,NW,315,2.5,6.3,77,0.00,,,0.00,WUHU216HW,2013-07-10 13:06:00,
2013-07-10 08:11:00,71.3,62.9,29.88,West,270,7.4,7.4,75,0.00,,,0.00,WUHU216HW,2013-07-10 13:11:00,
2013-07-10 08:16:00,70.7,62.7,29.88,NNW,338,2.5,7.4,76,0.00,,,0.00,WUHU216HW,2013-07-10 13:16:00,
2013-07-10 08:21:00,70.6,62.6,29.88,West,270,3.8,7.4,76,0.00,,,0.00,WUHU216HW,2013-07-10 13:21:00,
2013-07-10 08:26:00,70.9,62.6,29.88,WNW,293,6.9,7.4,75,0.00,,,0.00,WUHU216HW,2013-07-10 13:26:00,
2013-07-10 08:31:00,71.1,62.4,29.88,North,0,4.0,7.4,74,0.00,,,0.00,WUHU216HW,2013-07-10 13:31:00,
2013-07-10 08:36:00,71.1,61.6,29.88,North,0,8.9,8.9,72,0.00,,,0.00,WUHU216HW,2013-07-10 13:36:00,
2013-07-10 08:41:00,71.3,61.7,29.88,West,270,5.1,9.6,72,0.00,,,0.00,WUHU216HW,2013-07-10 13:41:00,
2013-07-10 08:46:00,71.8,61.9,29.89,NE,45,3.1,9.6,71,0.00,,,0.00,WUHU216HW,2013-07-10 13:46:00,
2013-07-10 08:51:00,72.4,62.1,29.89,NW,315,4.7,9.8,70,0.00,,,0.00,WUHU216HW,2013-07-10 13:51:00,
2013-07-10 08:56:00,72.4,62.1,29.89,NW,315,2.9,9.8,70,0.00,,,0.00,WUHU216HW,2013-07-10 13:56:00,
2013-07-10 09:01:00,72.2,62.3,29.90,North,0,2.2,8.9,71,0.00,,,0.00,WUHU216HW,2013-07-10 14:01:00,
2013-07-10 09:06:00,72.4,61.7,29.90,NW,315,7.8,7.8,69,0.00,,,0.00,WUHU216HW,2013-07-10 14:06:00,
2013-07-10 09:11:00,72.4,61.7,29.90,NNW,338,5.4,9.2,69,0.00,,,0.00,WUHU216HW,2013-07-10 14:11:00,
2013-07-10 09:16:00,72.0,60.0,29.90,NW,315,7.2,12.3,66,0.00,,,0.00,WUHU216HW,2013-07-10 14:16:00,
2013-07-10 09:21:00,72.0,60.0,29.90,North,0,6.9,12.3,66,0.00,,,0.00,WUHU216HW,2013-07-10 14:21:00,
2013-07-10 09:26:00,71.6,59.7,29.90,NW,315,9.6,10.1,66,0.00,,,0.00,WUHU216HW,2013-07-10 14:26:00,
2013-07-10 09:31:00,71.6,59.7,29.91,NNW,338,4.7,11.4,66,0.00,,,0.00,WUHU216HW,2013-07-10 14:31:00,
2013-07-10 09:36:00,72.0,60.0,29.91,NNE,23,3.4,11.4,66,0.00,,,0.00,WUHU216HW,2013-07-10 14:36:00,
2013-07-10 09:41:00,72.7,59.8,29.90,NW,315,5.1,8.5,64,0.00,,,0.00,WUHU216HW,2013-07-10 14:41:00,
2013-07-10 09:46:00,73.1,60.1,29.91,NE,45,4.5,8.9,64,0.00,,,0.00,WUHU216HW,2013-07-10 14:46:00,
2013-07-10 09:51:00,73.4,60.0,29.90,WNW,293,5.6,9.8,63,0.00,,,0.00,WUHU216HW,2013-07-10 14:51:00,
2013-07-10 09:56:00,72.9,59.5,29.91,North,0,6.3,9.8,63,0.00,,,0.00,WUHU216HW,2013-07-10 14:56:00,
2013-07-10 10:01:00,72.5,58.8,29.91,North,0,8.3,9.2,62,0.00,,,0.00,WUHU216HW,2013-07-10 15:01:00,
2013-07-10 10:06:00,72.7,59.8,29.91,NW,315,3.8,10.5,64,0.00,,,0.00,WUHU216HW,2013-07-10 15:06:00,
2013-07-10 10:11:00,73.4,59.1,29.91,NNE,23,7.6,11.6,61,0.00,,,0.00,WUHU216HW,2013-07-10 15:11:00,
2013-07-10 10:16:00,73.3,58.1,29.91,NW,315,5.4,11.9,59,0.00,,,0.00,WUHU216HW,2013-07-10 15:16:00,
2013-07-10 10:21:00,73.1,58.3,29.91,North,0,4.7,14.1,60,0.00,,,0.00,WUHU216HW,2013-07-10 15:21:00,
2013-07-10 10:26:00,73.6,58.3,29.91,ENE,68,5.6,14.1,59,0.00,,,0.00,WUHU216HW,2013-07-10 15:26:00,
2013-07-10 10:31:00,73.8,58.5,29.91,NW,315,3.8,8.5,59,0.00,,,0.00,WUHU216HW,2013-07-10 15:31:00,
2013-07-10 10:36:00,74.0,58.2,29.91,North,0,9.4,9.4,58,0.00,,,0.00,WUHU216HW,2013-07-10 15:36:00,
2013-07-10 10:41:00,73.8,58.1,29.91,NNW,338,6.9,9.4,58,0.00,,,0.00,WUHU216HW,2013-07-10 15:41:00,
2013-07-10 10:46:00,73.8,58.1,29.91,WNW,293,4.7,10.5,58,0.00,,,0.00,WUHU216HW,2013-07-10 15:46:00,
2013-07-10 10:51:00,74.2,57.4,29.91,WNW,293,6.9,12.3,56,0.00,,,0.00,WUHU216HW,2013-07-10 15:51:00,
2013-07-10 10:56:00,74.2,57.9,29.91,NNW,338,4.7,12.3,57,0.00,,,0.00,WUHU216HW,2013-07-10 15:56:00,
2013-07-10 11:01:00,73.8,58.1,29.91,West,270,6.0,10.5,58,0.00,,,0.00,WUHU216HW,2013-07-10 16:01:00,
2013-07-10 11:06:00,74.2,58.4,29.91,NNW,338,6.3,9.4,58,0.00,,,0.00,WUHU216HW,2013-07-10 16:06:00,
2013-07-10 11:11:00,74.5,58.8,29.91,North,0,5.4,8.5,58,0.00,,,0.00,WUHU216HW,2013-07-10 16:11:00,
2013-07-10 11:16:00,74.9,59.6,29.91,North,0,3.8,9.2,59,0.00,,,0.00,WUHU216HW,2013-07-10 16:16:00,
2013-07-10 11:21:00,75.2,59.5,29.91,West,270,7.4,9.2,58,0.00,,,0.00,WUHU216HW,2013-07-10 16:21:00,
2013-07-10 11:26:00,75.2,59.0,29.91,North,0,3.6,8.9,57,0.00,,,0.00,WUHU216HW,2013-07-10 16:26:00,
2013-07-10 11:31:00,75.2,58.5,29.91,NW,315,6.9,8.9,56,0.00,,,0.00,WUHU216HW,2013-07-10 16:31:00,
2013-07-10 11:36:00,75.1,57.8,29.92,West,270,5.8,8.5,55,0.00,,,0.00,WUHU216HW,2013-07-10 16:36:00,
2013-07-10 11:41:00,75.2,58.5,29.92,North,0,4.3,8.5,56,0.00,,,0.00,WUHU216HW,2013-07-10 16:41:00,
2013-07-10 11:46:00,75.8,58.4,29.92,NW,315,4.5,7.6,55,0.00,,,0.00,WUHU216HW,2013-07-10 16:46:00,
2013-07-10 11:51:00,76.0,58.6,29.92,NW,315,8.5,13.6,55,0.00,,,0.00,WUHU216HW,2013-07-10 16:51:00,
2013-07-10 11:56:00,75.6,56.8,29.92,NE,45,3.6,13.6,52,0.00,,,0.00,WUHU216HW,2013-07-10 16:56:00,
2013-07-10 12:01:00,75.6,56.8,29.92,North,0,8.5,8.5,52,0.00,,,0.00,WUHU216HW,2013-07-10 17:01:00,
2013-07-10 12:06:00,75.2,56.4,29.92,NW,315,7.8,8.5,52,0.00,,,0.00,WUHU216HW,2013-07-10 17:06:00,
2013-07-10 12:11:00,75.6,56.3,29.93,North,0,9.2,10.7,51,0.00,,,0.00,WUHU216HW,2013-07-10 17:11:00,
2013-07-10 12:16:00,75.8,56.4,29.93,NNE,23,4.0,10.7,51,0.00,,,0.00,WUHU216HW,2013-07-10 17:16:00,
2013-07-10 12:21:00,76.1,57.2,29.93,NW,315,7.4,9.2,52,0.00,,,0.00,WUHU216HW,2013-07-10 17:21:00,
2013-07-10 12:26:00,76.5,58.1,29.93,NW,315,2.5,9.4,53,0.00,,,0.00,WUHU216HW,2013-07-10 17:26:00,
2013-07-10 12:31:00,76.3,56.9,29.93,NNW,338,4.0,9.4,51,0.00,,,0.00,WUHU216HW,2013-07-10 17:31:00,
2013-07-10 12:36:00,76.3,57.4,29.93,NW,315,7.2,9.2,52,0.00,,,0.00,WUHU216HW,2013-07-10 17:36:00,
2013-07-10 12:41:00,76.7,57.2,29.93,North,0,5.4,10.5,51,0.00,,,0.00,WUHU216HW,2013-07-10 17:41:00,
2013-07-10 12:46:00,77.0,56.4,29.94,North,0,5.4,10.5,49,0.00,,,0.00,WUHU216HW,2013-07-10 17:46:00,
2013-07-10 12:51:00,77.2,58.2,29.94,NNW,338,1.6,8.9,52,0.00,,,0.00,WUHU216HW,2013-07-10 17:51:00,
2013-07-10 12:56:00,77.8,57.7,29.95,North,0,4.3,8.1,50,0.00,,,0.00,WUHU216HW,2013-07-10 17:56:00,
2013-07-10 13:01:00,77.9,57.9,29.94,NNE,23,7.8,8.1,50,0.00,,,0.00,WUHU216HW,2013-07-10 18:01:00,
2013-07-10 13:06:00,77.9,57.2,29.94,NW,315,9.4,9.4,49,0.00,,,0.00,WUHU216HW,2013-07-10 18:06:00,
2013-07-10 13:11:00,77.6,56.4,29.94,SW,225,4.7,9.4,48,0.00,,,0.00,WUHU216HW,2013-07-10 18:11:00,
2013-07-10 13:16:00,77.8,58.8,29.94,West,270,6.0,9.4,52,0.00,,,0.00,WUHU216HW,2013-07-10 18:16:00,
2013-07-10 13:21:00,77.8,58.2,29.94,West,270,1.1,7.2,51,0.00,,,0.00,WUHU216HW,2013-07-10 18:21:00,
2013-07-10 13:26:00,78.5,58.9,29.94,WNW,293,4.0,7.2,51,0.00,,,0.00,WUHU216HW,2013-07-10 18:26:00,
2013-07-10 13:31:00,78.7,57.9,29.94,NE,45,4.0,6.0,49,0.00,,,0.00,WUHU216HW,2013-07-10 18:31:00,
2013-07-10 13:36:00,78.1,59.0,29.94,WNW,293,6.5,8.3,52,0.00,,,0.00,WUHU216HW,2013-07-10 18:36:00,
2013-07-10 13:41:00,78.5,59.4,29.95,NNE,23,1.8,8.3,52,0.00,,,0.00,WUHU216HW,2013-07-10 18:41:00,
2013-07-10 13:46:00,78.1,56.8,29.95,NNW,338,2.0,7.8,48,0.00,,,0.00,WUHU216HW,2013-07-10 18:46:00,
2013-07-10 13:51:00,77.8,57.1,29.94,NE,45,4.5,6.3,49,0.00,,,0.00,WUHU216HW,2013-07-10 18:51:00,
2013-07-10 13:56:00,77.9,57.2,29.94,North,0,6.9,7.8,49,0.00,,,0.00,WUHU216HW,2013-07-10 18:56:00,
2013-07-10 14:01:00,78.5,57.8,29.95,South,180,3.8,8.7,49,0.00,,,0.00,WUHU216HW,2013-07-10 19:01:00,
2013-07-10 14:06:00,79.2,59.1,29.95,West,270,3.4,8.7,50,0.00,,,0.00,WUHU216HW,2013-07-10 19:06:00,
2013-07-10 14:11:00,79.2,57.2,29.94,North,0,4.0,7.2,47,0.00,,,0.00,WUHU216HW,2013-07-10 19:11:00,
2013-07-10 14:16:00,78.3,57.0,29.94,East,90,1.8,5.6,48,0.00,,,0.00,WUHU216HW,2013-07-10 19:16:00,
2013-07-10 14:21:00,77.8,57.7,29.94,NW,315,3.1,5.6,50,0.00,,,0.00,WUHU216HW,2013-07-10 19:21:00,
2013-07-10 14:26:00,78.5,57.2,29.94,NNW,338,2.5,6.0,48,0.00,,,0.00,WUHU216HW,2013-07-10 19:26:00,
2013-07-10 14:31:00,79.6,58.2,29.94,East,90,1.3,6.0,48,0.00,,,0.00,WUHU216HW,2013-07-10 19:31:00,
2013-07-10 14:36:00,79.7,57.7,29.94,WSW,248,2.9,7.6,47,0.00,,,0.00,WUHU216HW,2013-07-10 19:36:00,
2013-07-10 14:41:00,79.6,57.5,29.94,West,270,5.4,8.5,47,0.00,,,0.00,WUHU216HW,2013-07-10 19:41:00,
2013-07-10 14:46:00,79.9,57.3,29.94,NW,315,2.0,8.5,46,0.00,,,0.00,WUHU216HW,2013-07-10 19:46:00,
2013-07-10 14:51:00,79.4,58.6,29.94,North,0,1.6,7.8,49,0.00,,,0.00,WUHU216HW,2013-07-10 19:51:00,
2013-07-10 14:56:00,79.2,59.1,29.94,WNW,293,4.7,5.6,50,0.00,,,0.00,WUHU216HW,2013-07-10 19:56:00,
2013-07-10 15:01:00,78.8,59.2,29.94,NW,315,2.5,6.7,51,0.00,,,0.00,WUHU216HW,2013-07-10 20:01:00,
2013-07-10 15:06:00,79.0,60.4,29.94,NNW,338,2.7,6.7,53,0.00,,,0.00,WUHU216HW,2013-07-10 20:06:00,
2013-07-10 15:11:00,79.2,59.1,29.94,NW,315,4.7,5.8,50,0.00,,,0.00,WUHU216HW,2013-07-10 20:11:00,
2013-07-10 15:16:00,78.5,58.3,29.94,WNW,293,3.1,5.8,50,0.00,,,0.00,WUHU216HW,2013-07-10 20:16:00,
2013-07-10 15:21:00,78.1,59.0,29.94,East,90,3.4,5.1,52,0.00,,,0.00,WUHU216HW,2013-07-10 20:21:00,
2013-07-10 15:26:00,78.5,58.3,29.94,West,270,4.5,8.7,50,0.00,,,0.00,WUHU216HW,2013-07-10 20:26:00,
2013-07-10 15:31:00,79.0,58.2,29.94,WNW,293,2.5,8.7,49,0.00,,,0.00,WUHU216HW,2013-07-10 20:31:00,
2013-07-10 15:36:00,79.2,59.5,29.94,WNW,293,1.3,8.5,51,0.00,,,0.00,WUHU216HW,2013-07-10 20:36:00,
2013-07-10 15:41:00,79.9,60.7,29.94,WNW,293,3.8,4.0,52,0.00,,,0.00,WUHU216HW,2013-07-10 20:41:00,
2013-07-10 15:46:00,79.6,58.7,29.94,NE,45,4.3,7.2,49,0.00,,,0.00,WUHU216HW,2013-07-10 20:46:00,
2013-07-10 15:51:00,80.1,58.6,29.94,West,270,3.4,7.2,48,0.00,,,0.00,WUHU216HW,2013-07-10 20:51:00,
2013-07-10 15:56:00,80.3,59.4,29.94,West,270,3.1,7.6,49,0.00,,,0.00,WUHU216HW,2013-07-10 20:56:00,
2013-07-10 16:01:00,81.0,57.6,29.93,West,270,5.6,8.5,45,0.00,,,0.00,WUHU216HW,2013-07-10 21:01:00,
2013-07-10 16:06:00,81.0,58.8,29.93,WNW,293,4.0,8.5,47,0.00,,,0.00,WUHU216HW,2013-07-10 21:06:00,
2013-07-10 16:11:00,79.9,57.3,29.93,NNW,338,4.0,7.6,46,0.00,,,0.00,WUHU216HW,2013-07-10 21:11:00,
2013-07-10 16:16:00,78.3,57.6,29.93,West,270,2.5,7.2,49,0.00,,,0.00,WUHU216HW,2013-07-10 21:16:00,
2013-07-10 16:21:00,77.8,58.2,29.93,NW,315,1.8,4.5,51,0.00,,,0.00,WUHU216HW,2013-07-10 21:21:00,
2013-07-10 16:26:00,77.4,57.4,29.93,NNW,338,3.4,5.6,50,0.00,,,0.00,WUHU216HW,2013-07-10 21:26:00,
2013-07-10 16:31:00,77.4,57.9,29.93,West,270,5.4,5.6,51,0.00,,,0.00,WUHU216HW,2013-07-10 21:31:00,
2013-07-10 16:36:00,77.9,58.4,29.93,WNW,293,2.7,5.6,51,0.00,,,0.00,WUHU216HW,2013-07-10 21:36:00,
2013-07-10 16:41:00,78.5,58.9,29.93,SW,225,3.6,5.4,51,0.00,,,0.00,WUHU216HW,2013-07-10 21:41:00,
2013-07-10 16:46:00,79.2,59.1,29.93,WSW,248,4.0,5.4,50,0.00,,,0.00,WUHU216HW,2013-07-10 21:46:00,
2013-07-10 16:51:00,78.8,58.7,29.93,North,0,4.9,5.6,50,0.00,,,0.00,WUHU216HW,2013-07-10 21:51:00,
2013-07-10 16:56:00,78.3,58.7,29.93,NNW,338,1.8,6.3,51,0.00,,,0.00,WUHU216HW,2013-07-10 21:56:00,
2013-07-10 17:01:00,78.5,58.3,29.93,North,0,2.7,6.3,50,0.00,,,0.00,WUHU216HW,2013-07-10 22:01:00,
2013-07-10 17:06:00,78.8,56.9,29.93,NNW,338,7.2,7.2,47,0.00,,,0.00,WUHU216HW,2013-07-10 22:06:00,
2013-07-10 17:11:00,78.8,58.1,29.93,WNW,293,4.9,9.2,49,0.00,,,0.00,WUHU216HW,2013-07-10 22:11:00,
2013-07-10 17:16:00,79.0,57.6,29.93,ENE,68,4.7,9.2,48,0.00,,,0.00,WUHU216HW,2013-07-10 22:16:00,
2013-07-10 17:21:00,79.2,58.4,29.93,West,270,4.5,5.8,49,0.00,,,0.00,WUHU216HW,2013-07-10 22:21:00,
2013-07-10 17:22:00,79.2,58.4,29.93,West,270,4.5,5.8,49,0.00,,,0.00,WUHU216HW,2013-07-10 22:22:00,
2013-07-10 17:27:00,79.6,57.5,29.93,WNW,293,5.8,5.8,47,0.00,,,0.00,WUHU216HW,2013-07-10 22:27:00,
2013-07-10 17:32:00,79.7,57.1,29.92,ENE,68,5.4,5.8,46,0.00,,,0.00,WUHU216HW,2013-07-10 22:32:00,
2013-07-10 17:37:00,79.4,57.3,29.93,NNW,338,3.8,5.8,47,0.00,,,0.00,WUHU216HW,2013-07-10 22:37:00,
2013-07-10 17:42:00,79.4,58.0,29.93,North,0,2.9,4.7,48,0.00,,,0.00,WUHU216HW,2013-07-10 22:42:00,
2013-07-10 17:47:00,79.2,57.8,29.93,ENE,68,2.9,4.7,48,0.00,,,0.00,WUHU216HW,2013-07-10 22:47:00,
2013-07-10 17:52:00,79.0,57.6,29.92,NNW,338,2.0,5.4,48,0.00,,,0.00,WUHU216HW,2013-07-10 22:52:00,
2013-07-10 17:57:00,79.0,58.2,29.92,NNW,338,1.8,5.4,49,0.00,,,0.00,WUHU216HW,2013-07-10 22:57:00,
2013-07-10 18:02:00,79.0,59.4,29.93,NNW,338,3.4,4.7,51,0.00,,,0.00,WUHU216HW,2013-07-10 23:02:00,
2013-07-10 18:07:00,79.2,57.8,29.93,WSW,248,4.5,5.8,48,0.00,,,0.00,WUHU216HW,2013-07-10 23:07:00,
2013-07-10 18:12:00,78.8,57.4,29.93,North,0,1.1,5.8,48,0.00,,,0.00,WUHU216HW,2013-07-10 23:12:00,
2013-07-10 18:17:00,78.8,58.1,29.93,NW,315,3.1,5.1,49,0.00,,,0.00,WUHU216HW,2013-07-10 23:17:00,
2013-07-10 18:22:00,78.7,57.3,29.93,NNW,338,5.6,5.6,48,0.00,,,0.00,WUHU216HW,2013-07-10 23:22:00,
2013-07-10 18:27:00,78.7,57.9,29.93,NNW,338,2.9,5.6,49,0.00,,,0.00,WUHU216HW,2013-07-10 23:27:00,
2013-07-10 18:32:00,78.8,57.4,29.93,NNE,23,2.0,3.8,48,0.00,,,0.00,WUHU216HW,2013-07-10 23:32:00,
2013-07-10 18:37:00,78.8,57.4,29.94,WNW,293,5.1,5.1,48,0.00,,,0.00,WUHU216HW,2013-07-10 23:37:00,
2013-07-10 18:42:00,78.5,58.3,29.93,NE,45,1.8,5.1,50,0.00,,,0.00,WUHU216HW,2013-07-10 23:42:00,
2013-07-10 18:47:00,78.1,57.4,29.93,NNW,338,1.8,6.5,49,0.00,,,0.00,WUHU216HW,2013-07-10 23:47:00,
2013-07-10 18:52:00,77.9,57.2,29.93,NNW,338,2.2,6.5,49,0.00,,,0.00,WUHU216HW,2013-07-10 23:52:00,
2013-07-10 18:57:00,77.8,57.1,29.93,NW,315,0.9,4.9,49,0.00,,,0.00,WUHU216HW,2013-07-10 23:57:00,
2013-07-10 19:02:00,77.6,57.0,29.93,NW,315,3.4,5.4,49,0.00,,,0.00,WUHU216HW,2013-07-11 00:02:00,
2013-07-10 19:07:00,77.4,56.8,29.93,West,270,2.7,5.4,49,0.00,,,0.00,WUHU216HW,2013-07-11 00:07:00,
2013-07-10 19:12:00,77.2,57.3,29.93,North,0,1.1,5.4,50,0.00,,,0.00,WUHU216HW,2013-07-11 00:12:00,
2013-07-10 19:17:00,77.2,57.7,29.93,NNW,338,2.2,4.0,51,0.00,,,0.00,WUHU216HW,2013-07-11 00:17:00,
2013-07-10 19:22:00,77.2,57.7,29.93,NNE,23,1.6,4.0,51,0.00,,,0.00,WUHU216HW,2013-07-11 00:22:00,
2013-07-10 19:27:00,77.0,58.1,29.93,West,270,1.3,4.0,52,0.00,,,0.00,WUHU216HW,2013-07-11 00:27:00,
2013-07-10 19:32:00,77.0,58.1,29.93,WNW,293,0.7,3.4,52,0.00,,,0.00,WUHU216HW,2013-07-11 00:32:00,
2013-07-10 19:37:00,76.9,57.4,29.94,NNE,23,1.8,3.6,51,0.00,,,0.00,WUHU216HW,2013-07-11 00:37:00,
2013-07-10 19:42:00,76.7,57.8,29.94,NNW,338,1.3,3.6,52,0.00,,,0.00,WUHU216HW,2013-07-11 00:42:00,
2013-07-10 19:47:00,76.3,58.0,29.94,North,0,1.8,2.2,53,0.00,,,0.00,WUHU216HW,2013-07-11 00:47:00,
2013-07-10 19:52:00,76.0,57.6,29.94,WSW,248,1.1,1.8,53,0.00,,,0.00,WUHU216HW,2013-07-11 00:52:00,
2013-07-10 19:57:00,76.0,58.2,29.95,NW,315,1.3,1.3,54,0.00,,,0.00,WUHU216HW,2013-07-11 00:57:00,
2013-07-10 20:02:00,76.0,58.2,29.95,NW,315,0.4,1.3,54,0.00,,,0.00,WUHU216HW,2013-07-11 01:02:00,
2013-07-10 20:07:00,75.4,57.6,29.95,WNW,293,0.4,1.1,54,0.00,,,0.00,WUHU216HW,2013-07-11 01:07:00,
2013-07-10 20:12:00,74.9,57.1,29.95,NNW,338,0.0,1.1,54,0.00,,,0.00,WUHU216HW,2013-07-11 01:12:00,
2013-07-10 20:17:00,74.3,57.1,29.95,NW,315,0.4,0.7,55,0.00,,,0.00,WUHU216HW,2013-07-11 01:17:00,
2013-07-10 20:22:00,73.8,57.1,29.95,WNW,293,0.9,0.9,56,0.00,,,0.00,WUHU216HW,2013-07-11 01:22:00,
2013-07-10 20:27:00,73.1,56.9,29.95,NW,315,1.3,1.6,57,0.00,,,0.00,WUHU216HW,2013-07-11 01:27:00,
2013-07-10 20:32:00,72.5,56.3,29.95,West,270,0.0,1.6,57,0.00,,,0.00,WUHU216HW,2013-07-11 01:32:00,
2013-07-10 20:37:00,72.0,56.3,29.95,WSW,248,0.4,1.1,58,0.00,,,0.00,WUHU216HW,2013-07-11 01:37:00,
2013-07-10 20:42:00,71.5,56.4,29.95,West,270,0.7,1.1,59,0.00,,,0.00,WUHU216HW,2013-07-11 01:42:00,
2013-07-10 20:47:00,71.1,56.6,29.95,WNW,293,0.0,1.1,60,0.00,,,0.00,WUHU216HW,2013-07-11 01:47:00,
2013-07-10 20:52:00,70.6,56.1,29.95,West,270,0.9,1.1,60,0.00,,,0.00,WUHU216HW,2013-07-11 01:52:00,
2013-07-10 20:57:00,70.2,55.8,29.96,WNW,293,0.4,1.1,60,0.00,,,0.00,WUHU216HW,2013-07-11 01:57:00,
2013-07-10 21:02:00,69.8,55.9,29.96,WNW,293,0.9,1.8,61,0.00,,,0.00,WUHU216HW,2013-07-11 02:02:00,
2013-07-10 21:07:00,69.5,55.9,29.96,West,270,0.2,1.8,62,0.00,,,0.00,WUHU216HW,2013-07-11 02:07:00,
2013-07-10 21:12:00,69.1,55.5,29.96,West,270,0.0,0.7,62,0.00,,,0.00,WUHU216HW,2013-07-11 02:12:00,
2013-07-10 21:17:00,68.8,55.6,29.97,West,270,0.4,0.7,63,0.00,,,0.00,WUHU216HW,2013-07-11 02:17:00,
2013-07-10 21:22:00,68.6,55.9,29.97,West,270,0.2,0.4,64,0.00,,,0.00,WUHU216HW,2013-07-11 02:22:00,
2013-07-10 21:27:00,68.2,55.5,29.97,WSW,248,0.0,0.2,64,0.00,,,0.00,WUHU216HW,2013-07-11 02:27:00,
2013-07-10 21:32:00,68.0,55.8,29.97,WSW,248,0.0,0.2,65,0.00,,,0.00,WUHU216HW,2013-07-11 02:32:00,
2013-07-10 21:37:00,67.9,56.1,29.97,WSW,248,0.0,0.0,66,0.00,,,0.00,WUHU216HW,2013-07-11 02:37:00,
2013-07-10 21:42:00,67.5,55.7,29.97,WSW,248,0.0,0.0,66,0.00,,,0.00,WUHU216HW,2013-07-11 02:42:00,
2013-07-10 21:47:00,67.1,55.8,29.98,West,270,0.0,0.9,67,0.00,,,0.00,WUHU216HW,2013-07-11 02:47:00,
2013-07-10 21:52:00,66.8,55.4,29.98,SW,225,0.7,0.9,67,0.00,,,0.00,WUHU216HW,2013-07-11 02:52:00,
2013-07-10 21:57:00,66.4,55.5,29.98,SSW,203,0.0,0.7,68,0.00,,,0.00,WUHU216HW,2013-07-11 02:57:00,
2013-07-10 22:02:00,66.1,55.6,29.98,SSW,203,0.0,0.4,69,0.00,,,0.00,WUHU216HW,2013-07-11 03:02:00,
2013-07-10 22:07:00,65.7,55.7,29.98,SW,225,0.0,0.0,70,0.00,,,0.00,WUHU216HW,2013-07-11 03:07:00,
2013-07-10 22:12:00,65.5,55.5,29.98,WSW,248,0.0,0.7,70,0.00,,,0.00,WUHU216HW,2013-07-11 03:12:00,
2013-07-10 22:17:00,65.2,55.2,29.98,SW,225,0.0,0.7,70,0.00,,,0.00,WUHU216HW,2013-07-11 03:17:00,
2013-07-10 22:22:00,65.0,55.4,29.98,SW,225,0.0,0.0,71,0.00,,,0.00,WUHU216HW,2013-07-11 03:22:00,
2013-07-10 22:27:00,64.8,55.3,29.98,SW,225,0.0,0.0,71,0.00,,,0.00,WUHU216HW,2013-07-11 03:27:00,
2013-07-10 22:32:00,64.4,55.3,29.98,SSW,203,0.0,0.0,72,0.00,,,0.00,WUHU216HW,2013-07-11 03:32:00,
2013-07-10 22:37:00,64.3,55.1,29.98,SSW,203,0.0,0.0,72,0.00,,,0.00,WUHU216HW,2013-07-11 03:37:00,
2013-07-10 22:42:00,63.9,55.1,29.98,SSW,203,0.0,0.0,73,0.00,,,0.00,WUHU216HW,2013-07-11 03:42:00,
2013-07-10 22:47:00,63.7,55.3,29.98,SSW,203,0.0,0.0,74,0.00,,,0.00,WUHU216HW,2013-07-11 03:47:00,
2013-07-10 22:52:00,63.5,55.1,29.98,SSW,203,0.0,0.0,74,0.00,,,0.00,WUHU216HW,2013-07-11 03:52:00,
2013-07-10 22:57:00,63.2,54.7,29.98,SSW,203,0.0,0.0,74,0.00,,,0.00,WUHU216HW,2013-07-11 03:57:00,
2013-07-10 23:01:00,63.0,54.5,29.99,SSE,158,0.0,0.0,74,0.00,,,0.00,WUHU216HW,2013-07-11 04:01:00,
2013-07-10 23:06:00,62.6,54.2,29.99,SSE,158,0.0,0.0,74,0.00,,,0.00,WUHU216HW,2013-07-11 04:06:00,
2013-07-10 23:11:00,62.5,54.0,29.99,SSE,158,0.0,0.0,74,0.00,,,0.00,WUHU216HW,2013-07-11 04:11:00,
2013-07-10 23:16:00,62.3,53.8,29.99,SSE,158,0.0,0.0,74,0.00,,,0.00,WUHU216HW,2013-07-11 04:16:00,
2013-07-10 23:21:00,61.9,53.9,29.99,SSE,158,0.0,0.0,75,0.00,,,0.00,WUHU216HW,2013-07-11 04:21:00,
2013-07-10 23:26:00,61.6,53.9,29.99,SSE,158,0.0,0.0,76,0.00,,,0.00,WUHU216HW,2013-07-11 04:26:00,
2013-07-10 23:31:00,61.4,53.7,29.99,SSE,158,0.0,0.0,76,0.00,,,0.00,WUHU216HW,2013-07-11 04:31:00,
2013-07-10 23:36:00,61.2,53.7,29.99,SSE,158,0.0,0.0,76,0.00,,,0.00,WUHU216HW,2013-07-11 04:36:00,
2013-07-10 23:41:00,61.2,54.0,29.99,SSE,158,0.0,0.0,77,0.00,,,0.00,WUHU216HW,2013-07-11 04:41:00,
2013-07-10 23:46:00,61.0,53.8,30.00,SSE,158,0.0,0.0,77,0.00,,,0.00,WUHU216HW,2013-07-11 04:46:00,
2013-07-10 23:51:00,60.8,53.6,30.00,SSE,158,0.0,0.0,77,0.00,,,0.00,WUHU216HW,2013-07-11 04:51:00,
2013-07-10 23:56:00,60.8,54.0,30.00,SSE,158,0.0,0.0,78,0.00,,,0.00,WUHU216HW,2013-07-11 04:56:00,